• en Belgique
  • Liste des pays
  • À 7 jours
  • Température de l'eau
  • Carte satellitaire
  • Carte météo
  • Widgets météo
  • user-avatar
    Se connecter

    Météo par heure à Seli

    Ce jour, 21 Juin, Jeudi

    Heure Température Précipitation Vent Pression Humidité
    00:00 +25°C° 0 mm 2 m/s 749 mmHg 76%
    01:00 +25°C° 0 mm 2 m/s 749 mmHg 76%
    02:00 +24°C° 0 mm 2 m/s 749 mmHg 77%
    03:00 +24°C° 0 mm 2 m/s 749 mmHg 76%
    04:00 +24°C° 0 mm 2 m/s 749 mmHg 76%
    05:00 +23°C° 0 mm 2 m/s 749 mmHg 76%
    06:00 +24°C° 0 mm 2 m/s 749 mmHg 71%
    07:00 +25°C° 0 mm 2 m/s 749 mmHg 66%
    08:00 +26°C° 0 mm 2 m/s 749 mmHg 60%
    09:00 +27°C° 0 mm 2 m/s 749 mmHg 57%
    10:00 +28°C° 0 mm 2 m/s 749 mmHg 54%
    11:00 +29°C° 0 mm 3 m/s 749 mmHg 50%
    12:00 +29°C° 0 mm 3 m/s 749 mmHg 50%
    13:00 +29°C° 0 mm 4 m/s 749 mmHg 50%
    14:00 +30°C° 0 mm 4 m/s 749 mmHg 50%
    15:00 +29°C° 0 mm 4 m/s 749 mmHg 51%
    16:00 +29°C° 0 mm 3 m/s 749 mmHg 52%
    17:00 +29°C° 0 mm 3 m/s 749 mmHg 53%
    18:00 +28°C° 0 mm 2 m/s 749 mmHg 55%
    19:00 +28°C° 0 mm 2 m/s 749 mmHg 57%
    20:00 +27°C° 0 mm 2 m/s 749 mmHg 59%
    21:00 +26°C° 0 mm 2 m/s 749 mmHg 59%
    22:00 +26°C° 0 mm 2 m/s 749 mmHg 59%
    23:00 +25°C° 0 mm 3 m/s 749 mmHg 59%

    Demain, 22 Juin, Vendredi

    Heure Température Précipitation Vent Pression Humidité
    00:00 +25°C° 0 mm 3 m/s 749 mmHg 59%
    01:00 +25°C° 0 mm 4 m/s 749 mmHg 59%
    02:00 +23°C° 0 mm 4 m/s 748 mmHg 59%
    03:00 +23°C° 0 mm 4 m/s 748 mmHg 60%
    04:00 +23°C° 0 mm 4 m/s 748 mmHg 61%
    05:00 +22°C° 0 mm 4 m/s 748 mmHg 62%
    06:00 +23°C° 0 mm 4 m/s 748 mmHg 58%
    07:00 +26°C° 0 mm 5 m/s 748 mmHg 54%
    08:00 +27°C° 0 mm 5 m/s 748 mmHg 50%
    09:00 +28°C° 0 mm 5 m/s 748 mmHg 48%
    10:00 +29°C° 0 mm 6 m/s 748 mmHg 46%
    11:00 +30°C° 0 mm 6 m/s 749 mmHg 44%
    12:00 +30°C° 0 mm 6 m/s 748 mmHg 45%
    13:00 +30°C° 0 mm 7 m/s 748 mmHg 47%
    14:00 +30°C° 0 mm 7 m/s 748 mmHg 48%
    15:00 +30°C° 0 mm 7 m/s 748 mmHg 51%
    16:00 +30°C° 0 mm 7 m/s 748 mmHg 53%
    17:00 +29°C° 0 mm 7 m/s 747 mmHg 56%
    18:00 +28°C° 0 mm 7 m/s 747 mmHg 62%
    19:00 +27°C° 0 mm 7 m/s 747 mmHg 67%
    20:00 +26°C° 0 mm 6 m/s 747 mmHg 72%
    21:00 +26°C° 0 mm 6 m/s 747 mmHg 75%
    22:00 +24°C° 0 mm 6 m/s 747 mmHg 78%
    23:00 +24°C° 0 mm 6 m/s 747 mmHg 81%

    Après-demain, 23 Juin, Samedi

    Heure Température Précipitation Vent Pression Humidité
    00:00 +23°C° 0 mm 6 m/s 747 mmHg 82%
    01:00 +23°C° 0 mm 6 m/s 747 mmHg 83%
    02:00 +23°C° 0 mm 6 m/s 747 mmHg 84%
    03:00 +23°C° 0 mm 6 m/s 747 mmHg 85%
    04:00 +22°C° 0 mm 6 m/s 746 mmHg 86%
    05:00 +22°C° 0 mm 6 m/s 746 mmHg 86%
    06:00 +23°C° 0 mm 5 m/s 747 mmHg 81%
    07:00 +25°C° 0 mm 5 m/s 747 mmHg 75%
    08:00 +26°C° 0 mm 5 m/s 747 mmHg 69%
    09:00 +27°C° 0 mm 6 m/s 747 mmHg 64%
    10:00 +28°C° 0 mm 6 m/s 747 mmHg 59%
    11:00 +29°C° 0 mm 6 m/s 747 mmHg 54%
    12:00 +30°C° 0 mm 6 m/s 747 mmHg 53%
    13:00 +30°C° 0 mm 6 m/s 747 mmHg 53%
    14:00 +32°C° 0 mm 5 m/s 747 mmHg 52%
    15:00 +32°C° 0 mm 5 m/s 747 mmHg 53%
    16:00 +32°C° 0 mm 5 m/s 747 mmHg 54%
    17:00 +30°C° 0 mm 5 m/s 747 mmHg 55%
    18:00 +29°C° 0 mm 4 m/s 747 mmHg 59%
    19:00 +28°C° 0 mm 4 m/s 747 mmHg 62%
    20:00 +27°C° 0 mm 3 m/s 747 mmHg 65%
    21:00 +27°C° 0 mm 3 m/s 747 mmHg 68%
    22:00 +26°C° 0 mm 3 m/s 748 mmHg 70%
    23:00 +25°C° 0 mm 2 m/s 748 mmHg 73%

    24 Juin, Dimanche

    Heure Température Précipitation Vent Pression Humidité
    00:00 +25°C° 0 mm 2 m/s 747 mmHg 72%
    01:00 +25°C° 0 mm 3 m/s 747 mmHg 71%
    02:00 +25°C° 0 mm 3 m/s 747 mmHg 69%
    03:00 +24°C° 0 mm 3 m/s 747 mmHg 69%
    04:00 +23°C° 0 mm 4 m/s 747 mmHg 69%
    05:00 +23°C° 0 mm 4 m/s 747 mmHg 68%
    06:00 +25°C° 0 mm 4 m/s 747 mmHg 66%
    07:00 +27°C° 0 mm 4 m/s 747 mmHg 63%
    08:00 +28°C° 0 mm 5 m/s 747 mmHg 60%
    09:00 +29°C° 0 mm 5 m/s 748 mmHg 57%
    10:00 +30°C° 0 mm 5 m/s 748 mmHg 54%
    11:00 +30°C° 0 mm 5 m/s 748 mmHg 51%
    12:00 +32°C° 0 mm 5 m/s 748 mmHg 51%
    13:00 +32°C° 0 mm 5 m/s 748 mmHg 50%
    14:00 +32°C° 0 mm 5 m/s 748 mmHg 50%
    15:00 +32°C° 0 mm 5 m/s 748 mmHg 50%
    16:00 +32°C° 0 mm 5 m/s 748 mmHg 50%
    17:00 +32°C° 0 mm 4 m/s 748 mmHg 50%
    18:00 +30°C° 0 mm 4 m/s 748 mmHg 53%
    19:00 +29°C° 0 mm 4 m/s 748 mmHg 56%
    20:00 +27°C° 0 mm 4 m/s 748 mmHg 59%
    21:00 +27°C° 0 mm 4 m/s 748 mmHg 63%
    22:00 +26°C° 0 mm 4 m/s 748 mmHg 66%
    23:00 +25°C° 0 mm 4 m/s 748 mmHg 69%

    25 Juin, Lundi

    Heure Température Précipitation Vent Pression Humidité
    00:00 +25°C° 0 mm 4 m/s 748 mmHg 70%
    01:00 +25°C° 0 mm 4 m/s 747 mmHg 70%
    02:00 +25°C° 0 mm 4 m/s 747 mmHg 71%
    03:00 +23°C° 0 mm 4 m/s 747 mmHg 73%
    04:00 +23°C° 0 mm 5 m/s 747 mmHg 75%
    05:00 +23°C° 0 mm 5 m/s 747 mmHg 76%
    06:00 +25°C° 0 mm 5 m/s 747 mmHg 72%
    07:00 +26°C° 0 mm 5 m/s 747 mmHg 67%
    08:00 +27°C° 0 mm 5 m/s 747 mmHg 62%
    09:00 +28°C° 0 mm 5 m/s 747 mmHg 58%
    10:00 +29°C° 0 mm 5 m/s 747 mmHg 55%
    11:00 +30°C° 0 mm 4 m/s 747 mmHg 51%
    12:00 +30°C° 0 mm 4 m/s 747 mmHg 50%
    13:00 +30°C° 0 mm 5 m/s 747 mmHg 50%
    14:00 +32°C° 0 mm 5 m/s 747 mmHg 49%
    15:00 +30°C° 0 mm 4 m/s 747 mmHg 50%
    16:00 +30°C° 0 mm 4 m/s 747 mmHg 51%
    17:00 +30°C° 0 mm 4 m/s 746 mmHg 52%
    18:00 +29°C° 0 mm 3 m/s 746 mmHg 57%
    19:00 +28°C° 0 mm 2 m/s 746 mmHg 61%
    20:00 +27°C° 0 mm 2 m/s 746 mmHg 66%
    21:00 +26°C° 0 mm 1 m/s 746 mmHg 69%
    22:00 +26°C° 0 mm 1 m/s 746 mmHg 72%
    23:00 +25°C° 0 mm 1 m/s 746 mmHg 76%

    26 Juin, Mardi

    Heure Température Précipitation Vent Pression Humidité
    00:00 +25°C° 0 mm 1 m/s 746 mmHg 77%
    01:00 +24°C° 0 mm 1 m/s 746 mmHg 78%
    02:00 +24°C° 0 mm 1 m/s 745 mmHg 79%
    03:00 +23°C° 0 mm 1 m/s 745 mmHg 78%
    04:00 +23°C° 0 mm 1 m/s 745 mmHg 78%
    05:00 +23°C° 0 mm 1 m/s 745 mmHg 77%
    06:00 +24°C° 0,2 mm 1 m/s 745 mmHg 71%
    07:00 +25°C° 0,2 mm 2 m/s 745 mmHg 65%
    08:00 +26°C° 0,2 mm 2 m/s 746 mmHg 60%
    09:00 +27°C° 0,1 mm 2 m/s 746 mmHg 54%
    10:00 +29°C° 0,1 mm 2 m/s 745 mmHg 49%
    11:00 +30°C° 0,1 mm 2 m/s 745 mmHg 44%
    12:00 +30°C° 0 mm 2 m/s 745 mmHg 44%
    13:00 +30°C° 0 mm 2 m/s 745 mmHg 44%
    14:00 +31°C° 0 mm 2 m/s 745 mmHg 44%
    15:00 +30°C° 0 mm 3 m/s 745 mmHg 46%
    16:00 +30°C° 0 mm 3 m/s 744 mmHg 48%
    17:00 +30°C° 0 mm 3 m/s 744 mmHg 50%
    18:00 +29°C° 0 mm 3 m/s 744 mmHg 54%
    19:00 +28°C° 0 mm 4 m/s 744 mmHg 58%
    20:00 +27°C° 0 mm 4 m/s 744 mmHg 63%
    21:00 +27°C° 0 mm 3 m/s 744 mmHg 65%
    22:00 +26°C° 0 mm 3 m/s 745 mmHg 68%
    23:00 +26°C° 0 mm 2 m/s 745 mmHg 71%
    Voir plus